Terug naar catalogus

COSMOS 1275 DEB

ActiefPO
NORAD 12652·DEBRIS·🇷🇺 Russia

Gelanceerd Jun 4, 1981 vanaf Plesetsk Cosmodrome

Loading…

Volgende Passages (komende 24 uur)

TLE

VersSource: Space-Track

Epoch: Sep 14, 2026, 08:11 UTC

1 12652U 81053G   26257.34121628  .00001013  00000-0  63293-3 0  9993
2 12652  82.9354 287.2739 0052888  76.1295 298.0292 14.03112232208380

Volg COSMOS 1275 DEB in realtime met AllMySat

Download on the App Store